Location: Izdebno
(52.6670°N, 16.2170°E)
Time: 12:22:05
(UTC+02:00)

Vanguard 2 - Pass Details

Date: 08 February 2023
Orbit: 553 x 2927 km, 32.9° (Epoch: 26 March)

Event Time Altitude Azimuth Distance (km) Brightness Sun altitude
Rises 23:16:34 0° 253° (WSW) 5,507 11.9 -50.8°
Enters shadow 23:19:37 - 246° (WSW) 4,925 11.6 -50.9°
Reaches altitude 10° 23:20:18 10° 244° (WSW) 4,807 - -50.9°
Maximum altitude 23:32:32 34° 187° (S) 3,882 - -51.5°
Drops below altitude 10° 23:47:11 10° 132° (SE) 5,745 - -51.9°
Sets 23:52:12 0° 125° (SE) 6,682 - -52.0°
